User: anonymous   Login
Location: Mentone
(34.5413°N, 85.5351°W)
Time: 15:28:39
(UTC-05:00)
Language:

SL-8 R/B - Orbit

View from above orbital plane
View from above orbital plane
View from above satellite
View from above satellite

Ground track
Ground track

The orbit data is extracted from the following two-line orbital elements,

1 33066U 08031G   17142.73675528 -.00000083 +00000-0 +18863-4 0  9990
2 33066 048.4434 229.4420 0007488 004.2987 133.0610 14.69536764479013
Epoch (UTC): 22 May 2017 17:40:55
Eccentricity: 0.0007488
inclination: 48.4434°
perigee height: 657 km
apogee height: 668 km
right ascension of ascending node: 229.4420°
argument of perigee: 4.2987°
revolutions per day: 14.69536764
mean anomaly at epoch: 133.0610°
orbit number at epoch: 47901

The dashed part of the orbit path shows where the satellite is in the earth's shadow,  

DLR